This is the latest recevied weather packets stored in our database for station/object N4DWK. If no packets are shown the sender has not sent any weather packets the latest 10 day(s).
| Time | Temp. | Humidity | Pressure | Rain* | Wind** | Luminosity | Snow |
|---|---|---|---|---|---|---|---|
| 1777934707 | 24.44° C | 39% | 1011.7 hPa | 0 mm | - | 32 W/m² | - |
| 1777934403 | 24.44° C | 39% | 1011.8 hPa | 0 mm | - | 35 W/m² | - |
| 1777934104 | 25° C | 39% | 1011.7 hPa | 0 mm | - | 35 W/m² | - |
| 1777933510 | 25° C | 39% | 1011.7 hPa | 0 mm | - | 40 W/m² | - |
| 1777933210 | 25° C | 38% | 1011.7 hPa | 0 mm | - | 42 W/m² | - |
| 1777932909 | 25.56° C | 37% | 1011.6 hPa | 0 mm | - | 56 W/m² | - |
| 1777932610 | 25.56° C | 37% | 1011.6 hPa | 0 mm | - | 209 W/m² | - |
| 1777932310 | 25.56° C | 38% | 1011.6 hPa | 0 mm | - | 230 W/m² | - |
| 1777932010 | 25.56° C | 38% | 1011.6 hPa | 0 mm | - | 220 W/m² | - |
| 1777931710 | 25.56° C | 38% | 1011.7 hPa | 0 mm | - | 121 W/m² | - |
| 1777931410 | 25.56° C | 36% | 1011.7 hPa | 0 mm | - | 183 W/m² | - |
| 1777931110 | 25.56° C | 37% | 1011.7 hPa | 0 mm | - | 237 W/m² | - |
| 1777930810 | 25.56° C | 37% | 1011.6 hPa | 0 mm | - | 230 W/m² | - |
| 1777930509 | 26.11° C | 36% | 1011.6 hPa | 0 mm | - | 223 W/m² | - |
| 1777930210 | 26.11° C | 36% | 1011.5 hPa | 0 mm | - | 211 W/m² | - |
| 1777929910 | 26.11° C | 37% | 1011.5 hPa | 0 mm | - | 276 W/m² | - |
| 1777929611 | 26.11° C | 37% | 1011.6 hPa | 0 mm | - | 309 W/m² | - |
| 1777929310 | 26.11° C | 36% | 1011.6 hPa | 0 mm | - | 264 W/m² | - |
| 1777929009 | 26.11° C | 36% | 1011.7 hPa | 0 mm | - | 332 W/m² | - |
| 1777928710 | 26.11° C | 37% | 1011.7 hPa | 0 mm | - | 271 W/m² | - |
| 1777928410 | 26.11° C | 35% | 1011.6 hPa | 0 mm | - | 315 W/m² | - |
| 1777928110 | 26.67° C | 35% | 1011.6 hPa | 0 mm | - | 348 W/m² | - |
| 1777927809 | 27.22° C | 35% | 1011.6 hPa | 0 mm | - | 387 W/m² | - |
| 1777927510 | 26.67° C | 36% | 1011.6 hPa | 0 mm | - | 415 W/m² | - |
| 1777927210 | 26.67° C | 36% | 1011.7 hPa | 0 mm | - | 418 W/m² | - |
* Rain latest hour (hover to see other rain measurements)
** Current wind speed in m/s (hover to see current wind gust speed)